Location: Kielce
(50.8833°N, 20.6167°E)
Time: 21:56:11
(UTC+02:00)

SR - Pass Details

Date: 28 April 2021
Orbit: 573 x 882 km, 66.7° (Epoch: 09 May)

Event Time Altitude Azimuth Distance (km) Brightness Sun altitude
Rises 13:56:57 0° 322° (NW) 3,482 ? 49.9°
Reaches altitude 10° 13:59:32 10° 325° (NW) 2,524 ? 49.6°
Maximum altitude 14:05:24 71° 49° (NE) 887 ? 49.1°
Drops below altitude 10° 14:10:53 10° 134° (SE) 2,361 ? 48.6°
Sets 14:13:13 0° 137° (SE) 3,241 ? 48.4°
